Location: Skalnate Pleso
(49.1889°N, 20.2450°E)
Time: 23:34:41
(UTC+02:00)

Cosmos 1605 Rocket - Pass Details

Date: 25 February 2020
Orbit: 944 x 1006 km, 82.9° (Epoch: 09 April)

Event Time Altitude Azimuth Distance (km) Brightness Sun altitude
Rises 18:33:06 0° 254° (WSW) 3,724 8.6 -13.6°
Reaches altitude 10° 18:37:37 10° 284° (WNW) 2,770 7.7 -14.3°
Maximum altitude 18:40:01 12° 306° (NW) 2,608 7.1 -14.7°
Drops below altitude 10° 18:42:25 10° 329° (NNW) 2,762 6.8 -15.1°
Sets 18:46:56 0° 359° (N) 3,700 7.1 -15.8°
